Location: Beddau
(51.5575°N, 3.3561°W)
Time: 16:50:47
(UTC+00:00)

Cosmos 1703 Rocket - Pass Details

Date: 03 March 2021
Orbit: 604 x 634 km, 82.5° (Epoch: 12 April)

Event Time Altitude Azimuth Distance (km) Brightness Sun altitude
Rises 18:46:01 0° 355° (N) 2,919 7.1 -8.3°
Reaches altitude 10° 18:48:26 10° 4° (N) 2,002 6.1 -8.7°
Maximum altitude 18:52:30 35° 71° (ENE) 1,012 4.2 -9.3°
Drops below altitude 10° 18:56:31 10° 137° (SE) 1,970 5.7 -10.0°
Sets 18:58:52 0° 147° (SSE) 2,865 6.6 -10.3°
